owner,sensor,date,latitude,longitude,air_pressure(mBar),qcFlag 
TABS,ioos:station:wmo:42045:1,2017-10-01T00:00:00Z,26.2168,-96.4998,1013.58,11111222 
TABS,ioos:station:wmo:42045:1,2017-10-01T00:30:00Z,26.2168,-96.4998,1013.53,11111222 
TABS,ioos:station:wmo:42045:1,2017-10-01T01:00:00Z,26.2168,-96.4998,1013.77,11111222 
TABS,ioos:station:wmo:42045:1,2017-10-01T01:30:00Z,26.2168,-96.4998,1013.89,11111222 
TABS,ioos:station:wmo:42045:1,2017-10-01T02:00:00Z,26.2168,-96.4998,1014.11,11111222 
TABS,ioos:station:wmo:42045:1,2017-10-01T02:30:00Z,26.2168,-96.4998,1014.42,11111222 
TABS,ioos:station:wmo:42045:1,2017-10-01T03:00:00Z,26.2168,-96.4998,1014.44,11111222 
TABS,ioos:station:wmo:42045:1,2017-10-01T03:30:00Z,26.2168,-96.4998,1014.36,11111222 
TABS,ioos:station:wmo:42045:1,2017-10-01T04:00:00Z,26.2168,-96.4998,1014.2,11111222 
TABS,ioos:station:wmo:42045:1,2017-10-01T04:30:00Z,26.2168,-96.4998,1014.14,11111222 
TABS,ioos:station:wmo:42045:1,2017-10-01T05:00:00Z,26.2168,-96.4998,1013.84,11111222 
TABS,ioos:station:wmo:42045:1,2017-10-01T05:30:00Z,26.2168,-96.4998,1013.86,11111222 
TABS,ioos:station:wmo:42045:1,2017-10-01T06:00:00Z,26.2168,-96.4998,1013.41,11111222 
TABS,ioos:station:wmo:42045:1,2017-10-01T06:30:00Z,26.2168,-96.4998,1013.11,11111222 
TABS,ioos:station:wmo:42045:1,2017-10-01T07:00:00Z,26.2168,-96.4998,1012.79,11111222 
TABS,ioos:station:wmo:42045:1,2017-10-01T07:30:00Z,26.2168,-96.4998,1012.57,11111222 
TABS,ioos:station:wmo:42045:1,2017-10-01T08:00:00Z,26.2168,-96.4998,1012.04,11111222 
TABS,ioos:station:wmo:42045:1,2017-10-01T08:30:00Z,26.2168,-96.4998,1011.97,11111222 
TABS,ioos:station:wmo:42045:1,2017-10-01T09:00:00Z,26.2168,-96.4998,1011.73,11111222 
TABS,ioos:station:wmo:42045:1,2017-10-01T09:30:00Z,26.2168,-96.4998,1011.53,11111222 
TABS,ioos:station:wmo:42045:1,2017-10-01T10:00:00Z,26.2168,-96.4998,1011.61,11111222 
TABS,ioos:station:wmo:42045:1,2017-10-01T10:30:00Z,26.2168,-96.4998,1011.87,11111222 
TABS,ioos:station:wmo:42045:1,2017-10-01T11:00:00Z,26.2168,-96.4998,1012.03,11111222 
TABS,ioos:station:wmo:42045:1,2017-10-01T11:30:00Z,26.2168,-96.4998,1011.96,11111222 
TABS,ioos:station:wmo:42045:1,2017-10-01T12:00:00Z,26.2168,-96.4998,1011.97,11111222 
TABS,ioos:station:wmo:42045:1,2017-10-01T12:30:00Z,26.2168,-96.4998,1012.25,11111222 
TABS,ioos:station:wmo:42045:1,2017-10-01T13:00:00Z,26.2168,-96.4998,1012.43,11111222 
TABS,ioos:station:wmo:42045:1,2017-10-01T13:30:00Z,26.2168,-96.4998,1012.61,11111222 
TABS,ioos:station:wmo:42045:1,2017-10-01T14:00:00Z,26.2168,-96.4998,1012.83,11111222 
TABS,ioos:station:wmo:42045:1,2017-10-01T14:30:00Z,26.2168,-96.4998,1013.2,11111222 
TABS,ioos:station:wmo:42045:1,2017-10-01T15:00:00Z,26.2168,-96.4998,1013.47,11111222 
TABS,ioos:station:wmo:42045:1,2017-10-01T15:30:00Z,26.2168,-96.4998,1013.6,11111222 
TABS,ioos:station:wmo:42045:1,2017-10-01T16:00:00Z,26.2168,-96.4998,1013.61,11111222 
TABS,ioos:station:wmo:42045:1,2017-10-01T16:30:00Z,26.2168,-96.4998,1013.59,11111222 
TABS,ioos:station:wmo:42045:1,2017-10-01T17:00:00Z,26.2168,-96.4998,1013.59,11111222 
TABS,ioos:station:wmo:42045:1,2017-10-01T17:30:00Z,26.2168,-96.4998,1013.61,11111222 
TABS,ioos:station:wmo:42045:1,2017-10-01T18:00:00Z,26.2168,-96.4998,1013.1,11111222 
TABS,ioos:station:wmo:42045:1,2017-10-01T18:30:00Z,26.2168,-96.4998,1012.45,11111222 
TABS,ioos:station:wmo:42045:1,2017-10-01T19:00:00Z,26.2168,-96.4998,1012.3,11111222 
TABS,ioos:station:wmo:42045:1,2017-10-01T19:30:00Z,26.2168,-96.4998,1011.56,11111222 
TABS,ioos:station:wmo:42045:1,2017-10-01T20:00:00Z,26.2168,-96.4998,1011.21,11111222 
TABS,ioos:station:wmo:42045:1,2017-10-01T20:30:00Z,26.2168,-96.4998,1011.08,11111222 
TABS,ioos:station:wmo:42045:1,2017-10-01T21:00:00Z,26.2168,-96.4998,1011.21,11111222 
TABS,ioos:station:wmo:42045:1,2017-10-01T21:30:00Z,26.2168,-96.4998,1010.74,11111222 
TABS,ioos:station:wmo:42045:1,2017-10-01T22:00:00Z,26.2168,-96.4998,1010.62,11111222 
TABS,ioos:station:wmo:42045:1,2017-10-01T22:30:00Z,26.2168,-96.4998,1010.4,11111222 
TABS,ioos:station:wmo:42045:1,2017-10-01T23:00:00Z,26.2168,-96.4998,1010.58,11111222 
TABS,ioos:station:wmo:42045:1,2017-10-01T23:30:00Z,26.2168,-96.4998,1010.46,11111222 
TABS,ioos:station:wmo:42045:1,2017-10-02T00:00:00Z,26.2168,-96.4998,1010.63,11111222 
TABS,ioos:station:wmo:42045:1,2017-10-02T00:30:00Z,26.2168,-96.4998,1010.86,11111222 
TABS,ioos:station:wmo:42045:1,2017-10-02T01:00:00Z,26.2168,-96.4998,1010.72,11111222 
TABS,ioos:station:wmo:42045:1,2017-10-02T01:30:00Z,26.2168,-96.4998,1010.49,11111222 
TABS,ioos:station:wmo:42045:1,2017-10-02T02:00:00Z,26.2168,-96.4998,1010.61,11111222 
TABS,ioos:station:wmo:42045:1,2017-10-02T02:30:00Z,26.2168,-96.4998,1011.2,11111222 
TABS,ioos:station:wmo:42045:1,2017-10-02T03:00:00Z,26.2168,-96.4998,1011.34,11111222 
TABS,ioos:station:wmo:42045:1,2017-10-02T03:30:00Z,26.2168,-96.4998,1011.45,11111222 
TABS,ioos:station:wmo:42045:1,2017-10-02T04:00:00Z,26.2168,-96.4998,1011.43,11111222 
TABS,ioos:station:wmo:42045:1,2017-10-02T04:30:00Z,26.2168,-96.4998,1011.24,11111222 
TABS,ioos:station:wmo:42045:1,2017-10-02T05:00:00Z,26.2168,-96.4998,1011.53,11111222 
TABS,ioos:station:wmo:42045:1,2017-10-02T05:30:00Z,26.2168,-96.4998,1011.31,11111222 
TABS,ioos:station:wmo:42045:1,2017-10-02T06:00:00Z,26.2168,-96.4998,1011.47,11111222 
TABS,ioos:station:wmo:42045:1,2017-10-02T06:30:00Z,26.2168,-96.4998,1011.24,11111222 
TABS,ioos:station:wmo:42045:1,2017-10-02T07:00:00Z,26.2168,-96.4998,1010.96,11111222 
TABS,ioos:station:wmo:42045:1,2017-10-02T07:30:00Z,26.2168,-96.4998,1010.57,11111222 
TABS,ioos:station:wmo:42045:1,2017-10-02T08:00:00Z,26.2168,-96.4998,1010.33,11111222 
TABS,ioos:station:wmo:42045:1,2017-10-02T08:30:00Z,26.2168,-96.4998,1010.26,11111222 
TABS,ioos:station:wmo:42045:1,2017-10-02T09:00:00Z,26.2168,-96.4998,1010.19,11111222 
TABS,ioos:station:wmo:42045:1,2017-10-02T09:30:00Z,26.2168,-96.4998,1010.11,11111222 
TABS,ioos:station:wmo:42045:1,2017-10-02T10:00:00Z,26.2168,-96.4998,1010.02,11111222 
TABS,ioos:station:wmo:42045:1,2017-10-02T10:30:00Z,26.2168,-96.4998,1010.32,11111222 
TABS,ioos:station:wmo:42045:1,2017-10-02T11:00:00Z,26.2168,-96.4998,1010.56,11111222 
TABS,ioos:station:wmo:42045:1,2017-10-02T11:30:00Z,26.2168,-96.4998,1010.73,11111222 
TABS,ioos:station:wmo:42045:1,2017-10-02T12:00:00Z,26.2168,-96.4998,1011.02,11111222 
TABS,ioos:station:wmo:42045:1,2017-10-02T12:30:00Z,26.2168,-96.4998,1011.15,11111222 
TABS,ioos:station:wmo:42045:1,2017-10-02T13:00:00Z,26.2168,-96.4998,1011.29,11111222 
TABS,ioos:station:wmo:42045:1,2017-10-02T13:30:00Z,26.2168,-96.4998,1011.69,11111222 
TABS,ioos:station:wmo:42045:1,2017-10-02T14:00:00Z,26.2168,-96.4998,1011.78,11111222 
TABS,ioos:station:wmo:42045:1,2017-10-02T14:30:00Z,26.2168,-96.4998,1012.03,11111222 
TABS,ioos:station:wmo:42045:1,2017-10-02T15:00:00Z,26.2168,-96.4998,1012.31,11111222 
TABS,ioos:station:wmo:42045:1,2017-10-02T15:30:00Z,26.2168,-96.4998,1012.62,11111222 
TABS,ioos:station:wmo:42045:1,2017-10-02T16:00:00Z,26.2168,-96.4998,1012.62,11111222 
TABS,ioos:station:wmo:42045:1,2017-10-02T16:30:00Z,26.2168,-96.4998,1012.48,11111222 
TABS,ioos:station:wmo:42045:1,2017-10-02T17:00:00Z,26.2168,-96.4998,1012.55,11111222 
TABS,ioos:station:wmo:42045:1,2017-10-02T17:30:00Z,26.2168,-96.4998,1012.36,11111222 
TABS,ioos:station:wmo:42045:1,2017-10-02T18:00:00Z,26.2168,-96.4998,1012.26,11111222 
TABS,ioos:station:wmo:42045:1,2017-10-02T18:30:00Z,26.2168,-96.4998,1011.72,11111222 
TABS,ioos:station:wmo:42045:1,2017-10-02T19:00:00Z,26.2168,-96.4998,1011.45,11111222 
TABS,ioos:station:wmo:42045:1,2017-10-02T19:30:00Z,26.2168,-96.4998,1010.99,11111222 
TABS,ioos:station:wmo:42045:1,2017-10-02T20:00:00Z,26.2168,-96.4998,1010.71,11111222 
TABS,ioos:station:wmo:42045:1,2017-10-02T20:30:00Z,26.2168,-96.4998,1010.53,11111222 
TABS,ioos:station:wmo:42045:1,2017-10-02T21:00:00Z,26.2168,-96.4998,1010.62,11111222 
TABS,ioos:station:wmo:42045:1,2017-10-02T21:30:00Z,26.2168,-96.4998,1010.5,11111222 
TABS,ioos:station:wmo:42045:1,2017-10-02T22:00:00Z,26.2168,-96.4998,1010.71,11111222 
TABS,ioos:station:wmo:42045:1,2017-10-02T22:30:00Z,26.2168,-96.4998,1010.55,11111222 
TABS,ioos:station:wmo:42045:1,2017-10-02T23:00:00Z,26.2168,-96.4998,1010.55,11111222 
TABS,ioos:station:wmo:42045:1,2017-10-02T23:30:00Z,26.2168,-96.4998,1010.82,11111222 
TABS,ioos:station:wmo:42045:1,2017-10-03T00:00:00Z,26.2168,-96.4998,1010.78,11111222 
TABS,ioos:station:wmo:42045:1,2017-10-03T00:30:00Z,26.2168,-96.4998,1010.98,11111222 
TABS,ioos:station:wmo:42045:1,2017-10-03T01:00:00Z,26.2168,-96.4998,1010.93,11111222 
TABS,ioos:station:wmo:42045:1,2017-10-03T01:30:00Z,26.2168,-96.4998,1011.2,11111222 
TABS,ioos:station:wmo:42045:1,2017-10-03T02:00:00Z,26.2168,-96.4998,1011.67,11111222 
TABS,ioos:station:wmo:42045:1,2017-10-03T02:30:00Z,26.2168,-96.4998,1011.91,11111222 
TABS,ioos:station:wmo:42045:1,2017-10-03T03:00:00Z,26.2168,-96.4998,1012.23,11111222 
TABS,ioos:station:wmo:42045:1,2017-10-03T03:30:00Z,26.2168,-96.4998,1012.28,11111222 
TABS,ioos:station:wmo:42045:1,2017-10-03T04:00:00Z,26.2168,-96.4998,1012.74,11111222 
TABS,ioos:station:wmo:42045:1,2017-10-03T04:30:00Z,26.2168,-96.4998,1012.69,11111222 
TABS,ioos:station:wmo:42045:1,2017-10-03T05:00:00Z,26.2168,-96.4998,1012.62,11111222 
TABS,ioos:station:wmo:42045:1,2017-10-03T05:30:00Z,26.2168,-96.4998,1012.39,11111222 
TABS,ioos:station:wmo:42045:1,2017-10-03T06:00:00Z,26.2168,-96.4998,1012.47,11111222 
TABS,ioos:station:wmo:42045:1,2017-10-03T06:30:00Z,26.2168,-96.4998,1012.44,11111222 
TABS,ioos:station:wmo:42045:1,2017-10-03T07:00:00Z,26.2168,-96.4998,1011.96,11111222 
TABS,ioos:station:wmo:42045:1,2017-10-03T07:30:00Z,26.2168,-96.4998,1011.89,11111222 
TABS,ioos:station:wmo:42045:1,2017-10-03T08:00:00Z,26.2168,-96.4998,1011.26,11111222 
TABS,ioos:station:wmo:42045:1,2017-10-03T08:30:00Z,26.2168,-96.4998,1011.44,11111222 
TABS,ioos:station:wmo:42045:1,2017-10-03T09:00:00Z,26.2168,-96.4998,1010.8,11111222 
TABS,ioos:station:wmo:42045:1,2017-10-03T09:30:00Z,26.2168,-96.4998,1011.07,11111222 
TABS,ioos:station:wmo:42045:1,2017-10-03T10:00:00Z,26.2168,-96.4998,1011.45,11111222 
TABS,ioos:station:wmo:42045:1,2017-10-03T10:30:00Z,26.2168,-96.4998,1011.56,11111222 
TABS,ioos:station:wmo:42045:1,2017-10-03T11:00:00Z,26.2168,-96.4998,1011.67,11111222 
TABS,ioos:station:wmo:42045:1,2017-10-03T11:30:00Z,26.2168,-96.4998,1012.16,11111222 
TABS,ioos:station:wmo:42045:1,2017-10-03T12:00:00Z,26.2168,-96.4998,1012.43,11111222 
TABS,ioos:station:wmo:42045:1,2017-10-03T12:30:00Z,26.2168,-96.4998,1012.72,11111222 
TABS,ioos:station:wmo:42045:1,2017-10-03T13:00:00Z,26.2168,-96.4998,1013.26,11111222 
TABS,ioos:station:wmo:42045:1,2017-10-03T13:30:00Z,26.2168,-96.4998,1013.85,11111222 
TABS,ioos:station:wmo:42045:1,2017-10-03T14:00:00Z,26.2168,-96.4998,1014.1,11111222 
TABS,ioos:station:wmo:42045:1,2017-10-03T14:30:00Z,26.2168,-96.4998,1014.35,11111222 
TABS,ioos:station:wmo:42045:1,2017-10-03T15:00:00Z,26.2168,-96.4998,1014.63,11111222 
TABS,ioos:station:wmo:42045:1,2017-10-03T15:30:00Z,26.2168,-96.4998,1014.97,11111222 
TABS,ioos:station:wmo:42045:1,2017-10-03T16:00:00Z,26.2168,-96.4998,1015.08,11111222 
TABS,ioos:station:wmo:42045:1,2017-10-03T16:30:00Z,26.2168,-96.4998,1014.98,11111222 
TABS,ioos:station:wmo:42045:1,2017-10-03T17:00:00Z,26.2168,-96.4998,1014.72,11111222 
TABS,ioos:station:wmo:42045:1,2017-10-03T17:30:00Z,26.2168,-96.4998,1014.54,11111222 
TABS,ioos:station:wmo:42045:1,2017-10-03T18:00:00Z,26.2168,-96.4998,1014.48,11111222 
TABS,ioos:station:wmo:42045:1,2017-10-03T18:30:00Z,26.2168,-96.4998,1014.33,11111222 
TABS,ioos:station:wmo:42045:1,2017-10-03T19:00:00Z,26.2168,-96.4998,1013.96,11111222 
TABS,ioos:station:wmo:42045:1,2017-10-03T19:30:00Z,26.2168,-96.4998,1014.12,11111222 
TABS,ioos:station:wmo:42045:1,2017-10-03T20:00:00Z,26.2168,-96.4998,1014.18,11111222 
TABS,ioos:station:wmo:42045:1,2017-10-03T20:30:00Z,26.2168,-96.4998,1014.11,11111222 
TABS,ioos:station:wmo:42045:1,2017-10-03T21:00:00Z,26.2168,-96.4998,1014.11,11111222 
TABS,ioos:station:wmo:42045:1,2017-10-03T21:30:00Z,26.2168,-96.4998,1013.97,11111222 
TABS,ioos:station:wmo:42045:1,2017-10-03T22:00:00Z,26.2168,-96.4998,1014.44,11111222 
TABS,ioos:station:wmo:42045:1,2017-10-03T22:30:00Z,26.2168,-96.4998,1014.24,11111222 
TABS,ioos:station:wmo:42045:1,2017-10-03T23:00:00Z,26.2168,-96.4998,1014.57,11111222 
TABS,ioos:station:wmo:42045:1,2017-10-03T23:30:00Z,26.2168,-96.4998,1014.57,11111222 
TABS,ioos:station:wmo:42045:1,2017-10-04T00:00:00Z,26.2168,-96.4998,1014.75,11111222 
TABS,ioos:station:wmo:42045:1,2017-10-04T00:30:00Z,26.2168,-96.4998,1015.06,11111222 
TABS,ioos:station:wmo:42045:1,2017-10-04T01:00:00Z,26.2168,-96.4998,1015.37,11111222 
TABS,ioos:station:wmo:42045:1,2017-10-04T01:30:00Z,26.2168,-96.4998,1015.61,11111222 
TABS,ioos:station:wmo:42045:1,2017-10-04T02:00:00Z,26.2168,-96.4998,1016.35,11111222 
TABS,ioos:station:wmo:42045:1,2017-10-04T02:30:00Z,26.2168,-96.4998,1016.39,11111222 
TABS,ioos:station:wmo:42045:1,2017-10-04T03:00:00Z,26.2168,-96.4998,1016.71,11111222 
TABS,ioos:station:wmo:42045:1,2017-10-04T03:30:00Z,26.2168,-96.4998,1016.66,11111222 
TABS,ioos:station:wmo:42045:1,2017-10-04T04:00:00Z,26.2168,-96.4998,1016.63,11111222 
TABS,ioos:station:wmo:42045:1,2017-10-04T04:30:00Z,26.2168,-96.4998,1016.6,11111222 
TABS,ioos:station:wmo:42045:1,2017-10-04T05:00:00Z,26.2168,-96.4998,1016.47,11111222 
TABS,ioos:station:wmo:42045:1,2017-10-04T05:30:00Z,26.2168,-96.4998,1016.72,11111222 
TABS,ioos:station:wmo:42045:1,2017-10-04T06:00:00Z,26.2168,-96.4998,1016.37,11111222 
TABS,ioos:station:wmo:42045:1,2017-10-04T06:30:00Z,26.2168,-96.4998,1015.74,11111222 
TABS,ioos:station:wmo:42045:1,2017-10-04T07:00:00Z,26.2168,-96.4998,1016.21,11111222 
TABS,ioos:station:wmo:42045:1,2017-10-04T07:30:00Z,26.2168,-96.4998,1016.07,11111222 
TABS,ioos:station:wmo:42045:1,2017-10-04T08:00:00Z,26.2168,-96.4998,1015.83,11111222 
TABS,ioos:station:wmo:42045:1,2017-10-04T08:30:00Z,26.2168,-96.4998,1015.93,11111222 
TABS,ioos:station:wmo:42045:1,2017-10-04T09:00:00Z,26.2168,-96.4998,1015.89,11111222 
TABS,ioos:station:wmo:42045:1,2017-10-04T09:30:00Z,26.2168,-96.4998,1015.46,11111222 
TABS,ioos:station:wmo:42045:1,2017-10-04T10:00:00Z,26.2168,-96.4998,1015.7,11111222 
TABS,ioos:station:wmo:42045:1,2017-10-04T10:30:00Z,26.2168,-96.4998,1016.25,11111222 
TABS,ioos:station:wmo:42045:1,2017-10-04T11:00:00Z,26.2168,-96.4998,1017.14,11111222 
TABS,ioos:station:wmo:42045:1,2017-10-04T11:30:00Z,26.2168,-96.4998,1016.8,11111222 
TABS,ioos:station:wmo:42045:1,2017-10-04T12:00:00Z,26.2168,-96.4998,1017.71,11111222 
TABS,ioos:station:wmo:42045:1,2017-10-04T12:30:00Z,26.2168,-96.4998,1017.21,11111222 
TABS,ioos:station:wmo:42045:1,2017-10-04T13:00:00Z,26.2168,-96.4998,1017.13,11111222 
TABS,ioos:station:wmo:42045:1,2017-10-04T13:30:00Z,26.2168,-96.4998,1017.68,11111222 
TABS,ioos:station:wmo:42045:1,2017-10-04T14:00:00Z,26.2168,-96.4998,1017.7,11111222 
TABS,ioos:station:wmo:42045:1,2017-10-04T14:30:00Z,26.2168,-96.4998,1017.98,11111222 
TABS,ioos:station:wmo:42045:1,2017-10-04T15:00:00Z,26.2168,-96.4998,1018.3,11111222 
TABS,ioos:station:wmo:42045:1,2017-10-04T15:30:00Z,26.2168,-96.4998,1018.45,11111222 
TABS,ioos:station:wmo:42045:1,2017-10-04T16:00:00Z,26.2168,-96.4998,1018.64,11111222 
TABS,ioos:station:wmo:42045:1,2017-10-04T16:30:00Z,26.2168,-96.4998,1018.54,11111222 
TABS,ioos:station:wmo:42045:1,2017-10-04T17:00:00Z,26.2168,-96.4998,1018.11,11111222 
TABS,ioos:station:wmo:42045:1,2017-10-04T17:30:00Z,26.2168,-96.4998,1018.56,11111222 
TABS,ioos:station:wmo:42045:1,2017-10-04T18:00:00Z,26.2168,-96.4998,1017.71,11111222 
TABS,ioos:station:wmo:42045:1,2017-10-04T18:30:00Z,26.2168,-96.4998,1017.41,11111222 
TABS,ioos:station:wmo:42045:1,2017-10-04T19:00:00Z,26.2168,-96.4998,1017.12,11111222 
TABS,ioos:station:wmo:42045:1,2017-10-04T19:30:00Z,26.2168,-96.4998,1016.29,11111222 
TABS,ioos:station:wmo:42045:1,2017-10-04T20:00:00Z,26.2168,-96.4998,1015.96,11111222 
TABS,ioos:station:wmo:42045:1,2017-10-04T20:30:00Z,26.2168,-96.4998,1015.73,11111222 
TABS,ioos:station:wmo:42045:1,2017-10-04T21:00:00Z,26.2168,-96.4998,1015.5,11111222 
TABS,ioos:station:wmo:42045:1,2017-10-04T21:30:00Z,26.2168,-96.4998,1015.43,11111222 
TABS,ioos:station:wmo:42045:1,2017-10-04T22:00:00Z,26.2168,-96.4998,1015.28,11111222 
TABS,ioos:station:wmo:42045:1,2017-10-04T22:30:00Z,26.2168,-96.4998,1015.3,11111222 
TABS,ioos:station:wmo:42045:1,2017-10-04T23:00:00Z,26.2168,-96.4998,1015.21,11111222 
TABS,ioos:station:wmo:42045:1,2017-10-04T23:30:00Z,26.2168,-96.4998,1015.38,11111222 
TABS,ioos:station:wmo:42045:1,2017-10-05T00:00:00Z,26.2168,-96.4998,1015.46,11111222 
TABS,ioos:station:wmo:42045:1,2017-10-05T00:30:00Z,26.2168,-96.4998,1015.83,11111222 
TABS,ioos:station:wmo:42045:1,2017-10-05T01:00:00Z,26.2168,-96.4998,1015.87,11111222 
TABS,ioos:station:wmo:42045:1,2017-10-05T01:30:00Z,26.2168,-96.4998,1016.32,11111222 
TABS,ioos:station:wmo:42045:1,2017-10-05T02:00:00Z,26.2168,-96.4998,1016.07,11111222 
TABS,ioos:station:wmo:42045:1,2017-10-05T02:30:00Z,26.2168,-96.4998,1016.09,11111222 
TABS,ioos:station:wmo:42045:1,2017-10-05T03:00:00Z,26.2168,-96.4998,1016.34,11111222 
TABS,ioos:station:wmo:42045:1,2017-10-05T03:30:00Z,26.2168,-96.4998,1016.57,11111222 
TABS,ioos:station:wmo:42045:1,2017-10-05T04:00:00Z,26.2168,-96.4998,1016.62,11111222 
TABS,ioos:station:wmo:42045:1,2017-10-05T04:30:00Z,26.2168,-96.4998,1016.37,11111222 
TABS,ioos:station:wmo:42045:1,2017-10-05T05:00:00Z,26.2168,-96.4998,1016.45,11111222 
TABS,ioos:station:wmo:42045:1,2017-10-05T05:30:00Z,26.2168,-96.4998,1016.29,11111222 
TABS,ioos:station:wmo:42045:1,2017-10-05T06:00:00Z,26.2168,-96.4998,1015.72,11111222 
TABS,ioos:station:wmo:42045:1,2017-10-05T06:30:00Z,26.2168,-96.4998,1015.86,11111222 
TABS,ioos:station:wmo:42045:1,2017-10-05T07:00:00Z,26.2168,-96.4998,1015.46,11111222 
TABS,ioos:station:wmo:42045:1,2017-10-05T07:30:00Z,26.2168,-96.4998,1015.45,11111222 
TABS,ioos:station:wmo:42045:1,2017-10-05T08:00:00Z,26.2168,-96.4998,1015.41,11111222 
TABS,ioos:station:wmo:42045:1,2017-10-05T08:30:00Z,26.2168,-96.4998,1014.99,11111222 
TABS,ioos:station:wmo:42045:1,2017-10-05T09:00:00Z,26.2168,-96.4998,1014.84,11111222 
TABS,ioos:station:wmo:42045:1,2017-10-05T09:30:00Z,26.2168,-96.4998,1014.59,11111222 
TABS,ioos:station:wmo:42045:1,2017-10-05T10:00:00Z,26.2168,-96.4998,1015.03,11111222 
TABS,ioos:station:wmo:42045:1,2017-10-05T10:30:00Z,26.2168,-96.4998,1014.91,11111222 
TABS,ioos:station:wmo:42045:1,2017-10-05T11:00:00Z,26.2168,-96.4998,1015.39,11111222 
TABS,ioos:station:wmo:42045:1,2017-10-05T11:30:00Z,26.2168,-96.4998,1015.44,11111222 
TABS,ioos:station:wmo:42045:1,2017-10-05T12:00:00Z,26.2168,-96.4998,1015.53,11111222 
TABS,ioos:station:wmo:42045:1,2017-10-05T12:30:00Z,26.2168,-96.4998,1015.78,11111222 
TABS,ioos:station:wmo:42045:1,2017-10-05T13:00:00Z,26.2168,-96.4998,1016.06,11111222 
TABS,ioos:station:wmo:42045:1,2017-10-05T13:30:00Z,26.2168,-96.4998,1015.84,11111222 
TABS,ioos:station:wmo:42045:1,2017-10-05T14:00:00Z,26.2168,-96.4998,1015.92,11111222 
TABS,ioos:station:wmo:42045:1,2017-10-05T14:30:00Z,26.2168,-96.4998,1016.54,11111222 
TABS,ioos:station:wmo:42045:1,2017-10-05T15:00:00Z,26.2168,-96.4998,1016.19,11111222 
TABS,ioos:station:wmo:42045:1,2017-10-05T15:30:00Z,26.2168,-96.4998,1016.26,11111222 
TABS,ioos:station:wmo:42045:1,2017-10-05T16:00:00Z,26.2168,-96.4998,1016.38,11111222 
TABS,ioos:station:wmo:42045:1,2017-10-05T16:30:00Z,26.2168,-96.4998,1016.28,11111222 
TABS,ioos:station:wmo:42045:1,2017-10-05T17:00:00Z,26.2168,-96.4998,1016.33,11111222 
TABS,ioos:station:wmo:42045:1,2017-10-05T17:30:00Z,26.2168,-96.4998,1016.68,11111222 
TABS,ioos:station:wmo:42045:1,2017-10-05T18:00:00Z,26.2168,-96.4998,1016.15,11111222 
TABS,ioos:station:wmo:42045:1,2017-10-05T18:30:00Z,26.2168,-96.4998,1015.42,11111222 
TABS,ioos:station:wmo:42045:1,2017-10-05T19:00:00Z,26.2168,-96.4998,1015.11,11111222 
TABS,ioos:station:wmo:42045:1,2017-10-05T19:30:00Z,26.2168,-96.4998,1014.29,11111222 
TABS,ioos:station:wmo:42045:1,2017-10-05T20:00:00Z,26.2168,-96.4998,1014.15,11111222 
TABS,ioos:station:wmo:42045:1,2017-10-05T20:30:00Z,26.2168,-96.4998,1013.81,11111222 
TABS,ioos:station:wmo:42045:1,2017-10-05T21:00:00Z,26.2168,-96.4998,1013.54,11111222 
TABS,ioos:station:wmo:42045:1,2017-10-05T21:30:00Z,26.2168,-96.4998,1013.33,11111222 
TABS,ioos:station:wmo:42045:1,2017-10-05T22:00:00Z,26.2168,-96.4998,1013.31,11111222 
TABS,ioos:station:wmo:42045:1,2017-10-05T22:30:00Z,26.2168,-96.4998,1013.35,11111222 
TABS,ioos:station:wmo:42045:1,2017-10-05T23:00:00Z,26.2168,-96.4998,1012.95,11111222 
TABS,ioos:station:wmo:42045:1,2017-10-05T23:30:00Z,26.2168,-96.4998,1013.14,11111222 
TABS,ioos:station:wmo:42045:1,2017-10-06T00:00:00Z,26.2168,-96.4998,1013.38,11111222 
TABS,ioos:station:wmo:42045:1,2017-10-06T00:30:00Z,26.2168,-96.4998,1013.27,11111222 
TABS,ioos:station:wmo:42045:1,2017-10-06T01:00:00Z,26.2168,-96.4998,1013.49,11111222 
TABS,ioos:station:wmo:42045:1,2017-10-06T01:30:00Z,26.2168,-96.4998,1013.84,11111222 
TABS,ioos:station:wmo:42045:1,2017-10-06T02:00:00Z,26.2168,-96.4998,1014.1,11111222 
TABS,ioos:station:wmo:42045:1,2017-10-06T02:30:00Z,26.2168,-96.4998,1014.26,11111222 
TABS,ioos:station:wmo:42045:1,2017-10-06T03:00:00Z,26.2168,-96.4998,1014.3,11111222 
TABS,ioos:station:wmo:42045:1,2017-10-06T03:30:00Z,26.2168,-96.4998,1014.34,11111222 
TABS,ioos:station:wmo:42045:1,2017-10-06T04:00:00Z,26.2168,-96.4998,1014.2,11111222 
TABS,ioos:station:wmo:42045:1,2017-10-06T04:30:00Z,26.2168,-96.4998,1014.06,11111222 
TABS,ioos:station:wmo:42045:1,2017-10-06T05:00:00Z,26.2168,-96.4998,1014.13,11111222 
TABS,ioos:station:wmo:42045:1,2017-10-06T05:30:00Z,26.2168,-96.4998,1013.91,11111222 
TABS,ioos:station:wmo:42045:1,2017-10-06T06:00:00Z,26.2168,-96.4998,1013.83,11111222 
TABS,ioos:station:wmo:42045:1,2017-10-06T06:30:00Z,26.2168,-96.4998,1013.64,11111222 
TABS,ioos:station:wmo:42045:1,2017-10-06T07:00:00Z,26.2168,-96.4998,1013.59,11111222 
TABS,ioos:station:wmo:42045:1,2017-10-06T07:30:00Z,26.2168,-96.4998,1013.23,11111222 
TABS,ioos:station:wmo:42045:1,2017-10-06T08:00:00Z,26.2168,-96.4998,1013.07,11111222 
TABS,ioos:station:wmo:42045:1,2017-10-06T08:30:00Z,26.2168,-96.4998,1012.7,11111222 
TABS,ioos:station:wmo:42045:1,2017-10-06T09:00:00Z,26.2168,-96.4998,1012.42,11111222 
TABS,ioos:station:wmo:42045:1,2017-10-06T09:30:00Z,26.2168,-96.4998,1012.48,11111222 
TABS,ioos:station:wmo:42045:1,2017-10-06T10:00:00Z,26.2168,-96.4998,1012.2,11111222 
TABS,ioos:station:wmo:42045:1,2017-10-06T10:30:00Z,26.2168,-96.4998,1012.36,11111222 
TABS,ioos:station:wmo:42045:1,2017-10-06T11:00:00Z,26.2168,-96.4998,1012.04,11111222 
TABS,ioos:station:wmo:42045:1,2017-10-06T11:30:00Z,26.2168,-96.4998,1012.42,11111222 
TABS,ioos:station:wmo:42045:1,2017-10-06T12:00:00Z,26.2168,-96.4998,1012.66,11111222 
TABS,ioos:station:wmo:42045:1,2017-10-06T12:30:00Z,26.2168,-96.4998,1012.75,11111222 
TABS,ioos:station:wmo:42045:1,2017-10-06T13:00:00Z,26.2168,-96.4998,1012.88,11111222 
TABS,ioos:station:wmo:42045:1,2017-10-06T13:30:00Z,26.2168,-96.4998,1012.95,11111222 
TABS,ioos:station:wmo:42045:1,2017-10-06T14:00:00Z,26.2168,-96.4998,1013.17,11111222 
TABS,ioos:station:wmo:42045:1,2017-10-06T14:30:00Z,26.2168,-96.4998,1013.16,11111222 
TABS,ioos:station:wmo:42045:1,2017-10-06T15:00:00Z,26.2168,-96.4998,1013.33,11111222 
TABS,ioos:station:wmo:42045:1,2017-10-06T15:30:00Z,26.2168,-96.4998,1013.47,11111222 
TABS,ioos:station:wmo:42045:1,2017-10-06T16:00:00Z,26.2168,-96.4998,1013.15,11111222 
TABS,ioos:station:wmo:42045:1,2017-10-06T16:30:00Z,26.2168,-96.4998,1013.07,11111222 
TABS,ioos:station:wmo:42045:1,2017-10-06T17:00:00Z,26.2168,-96.4998,1012.83,11111222 
TABS,ioos:station:wmo:42045:1,2017-10-06T17:30:00Z,26.2168,-96.4998,1012.37,11111222 
TABS,ioos:station:wmo:42045:1,2017-10-06T18:00:00Z,26.2168,-96.4998,1011.96,11111222 
TABS,ioos:station:wmo:42045:1,2017-10-06T18:30:00Z,26.2168,-96.4998,1011.43,11111222 